This demonstration page uses our WeatherBlox Daily Observations layout. Learn more.

Left ArrowRight Arrow

44.89941, -97.11507

Hourly Observations for October 14, 2021

Temp ( °F °C ) Dew Point ( °F °C ) Humidity (%) Winds ( mph kmh ) Pressure ( in mb ) Visibility ( mi km ) Precip ( " mm )
12:53 am 00:53 Cloudy with Mist and Fog 42 5.6 41 5 96 96 WSW 23 37 29.54 1000 6 10 N/A
1:53 am 01:53 Cloudy 42 5.6 40 4.4 92 92 WSW 23 37 29.57 1002 8 13 N/A
2:06 am 02:06 Cloudy 42 5.6 40 4.4 92 92 WSW 26 43 29.61 1003 10 16 N/A
2:17 am 02:17 Cloudy 42 5.6 40 4.4 92 92 WSW 22 35 29.62 1003 10 16 N/A
2:27 am 02:27 Cloudy 42 5.6 39 3.9 89 89 WSW 21 33 29.63 1003 10 16 N/A
2:53 am 02:53 Cloudy 42 5.6 39 3.9 89 89 W 18 30 29.62 1003 10 16 N/A
3:53 am 03:53 Cloudy 41 5 39 3.9 93 93 W 26 43 29.66 1004 10 16 N/A
4:53 am 04:53 Cloudy 42 5.6 38 3.3 85 85 W 21 33 29.70 1006 10 16 N/A
5:26 am 05:26 Cloudy 41 5 37 2.8 86 86 W 22 35 29.73 1007 10 16 N/A
5:53 am 05:53 Cloudy 41 5 37 2.8 86 86 W 20 31 29.71 1006 10 16 N/A
6:53 am 06:53 Cloudy 41 5 37 2.8 86 86 W 18 30 29.73 1007 10 16 N/A
7:53 am 07:53 Cloudy 41 5 35 1.7 79 79 W 21 33 29.77 1008 10 16 N/A
8:53 am 08:53 Cloudy 41 5 35 1.7 79 79 W 18 30 29.80 1009 10 16 N/A
9:53 am 09:53 Cloudy 42 5.6 35 1.7 76 76 WSW 21 33 29.83 1010 10 16 N/A
10:53 am 10:53 Cloudy 42 5.6 35 1.7 76 76 W 21 33 29.83 1010 10 16 N/A
11:53 am 11:53 Cloudy 43 6.1 35 1.7 74 74 W 14 22 29.84 1010 10 16 N/A
12:53 pm 12:53 Cloudy 44 6.7 36 2.2 73 73 W 17 28 29.86 1011 10 16 N/A
1:53 pm 13:53 Cloudy 45 7.2 35 1.7 68 68 W 21 33 29.85 1011 10 16 N/A
2:44 pm 14:44 Cloudy 47 8.3 36 2.2 66 66 W 18 30 29.83 1010 10 16 N/A
2:53 pm 14:53 Cloudy 48 8.9 36 2.2 63 63 W 18 30 29.84 1010 10 16 N/A
3:53 pm 15:53 Cloudy 49 9.4 36 2.2 61 61 W 18 30 29.85 1011 10 16 N/A
4:53 pm 16:53 Cloudy 50 10 36 2.2 59 59 W 15 24 29.86 1011 10 16 N/A
5:53 pm 17:53 Mostly Sunny 50 10 36 2.2 59 59 W 12 19 29.88 1012 10 16 N/A
6:53 pm 18:53 Clear 46 7.8 36 2.2 68 68 W 8 13 29.89 1012 10 16 N/A
7:53 pm 19:53 Clear 42 5.6 35 1.7 76 76 SW 6 9 29.90 1012 10 16 N/A
8:53 pm 20:53 Clear 42 5.6 37 2.8 82 82 SW 8 13 29.91 1013 10 16 N/A
9:53 pm 21:53 Partly Cloudy 42 5.6 37 2.8 82 82 SW 6 9 29.92 1013 10 16 N/A
10:53 pm 22:53 Mostly Clear 43 6.1 36 2.2 76 76 WSW 8 13 29.93 1014 10 16 N/A
11:53 pm 23:53 Clear 41 5 35 1.7 79 79 W 10 17 29.94 1014 10 16 N/A

Powered by AerisWeather